Wind_Speed
18 19 20 21 21 21 21 21 24 26 27 24 24 24 24 25 26 25 24 24 23 23 23 24 24 25 26 27 27 27 27 28 28 29 30 31 32 33 34 35 35 36 36 35
17 18 19 20 21 21 21 21 22 24 24 23 23 23 24 24 24 23 22 22 21 21 21 22 22 22 23 24 25 25 26 27 28 28 29 30 31 31 31 32 32 33 32 31
16 17 18 18 18 19 19 20 22 22 22 22 21 22 23 22 22 22 21 20 20 19 19 19 20 20 21 22 23 24 25 26 26 27 28 29 29 29 29 29 30 29 28 26
16 16 16 15 16 17 18 20 20 20 21 21 20 21 22 22 21 20 19 19 17 17 17 17 18 19 19 20 21 22 23 24 25 26 26 26 26 26 26 26 26 26 25 24
15 15 14 14 15 16 16 17 18 19 20 20 20 21 21 21 20 19 18 16 16 16 16 16 17 17 18 19 20 21 21 22 22 23 23 23 23 24 24 24 24 23 22 22
15 15 15 13 14 15 16 16 17 18 18 19 20 20 20 20 19 17 16 15 15 15 15 15 16 16 17 18 18 19 19 19 20 20 21 21 21 22 22 22 22 21 20 20
16 16 15 14 15 16 16 15 16 17 18 18 19 19 20 19 18 17 16 15 15 15 15 15 15 16 16 17 17 17 18 18 19 19 19 20 20 21 21 21 20 20 20 20
18 18 16 17 17 17 16 16 17 17 18 18 19 19 19 19 18 17 16 16 15 15 15 15 15 16 16 17 17 17 17 18 18 19 19 19 20 20 20 20 20 20 20 20
21 20 19 19 19 18 18 18 18 18 19 19 19 20 20 20 19 19 18 17 17 17 16 16 16 16 17 17 18 18 18 18 19 19 19 20 20 21 21 21 21 21 20 20
22 21 21 20 20 20 20 20 20 20 20 21 21 21 22 21 21 20 20 19 18 18 18 18 18 18 18 18 19 19 19 19 20 20 20 21 21 21 22 21 21 21 21 21
25 24 23 22 21 21 21 21 21 21 22 22 22 23 23 23 22 22 21 21 20 20 20 19 19 19 19 20 20 20 20 21 21 22 22 22 22 22 23 23 23 22 22 23
27 27 26 24 24 23 22 22 22 22 22 23 23 24 24 24 24 24 23 22 22 22 21 21 21 21 21 21 21 22 22 22 23 23 23 23 24 24 24 24 24 24 24 25
29 29 28 26 25 24 23 23 23 23 24 24 24 24 25 25 25 25 25 24 24 23 23 23 23 23 23 22 23 23 23 24 24 24 24 25 25 26 26 26 26 27 27 27
32 30 29 27 26 25 24 23 23 24 24 25 25 26 26 26 26 26 26 26 25 25 25 25 25 25 25 25 24 24 25 25 25 25 26 26 27 27 27 28 28 28 29 29
33 32 30 29 27 26 25 24 24 24 25 25 26 26 26 26 26 27 27 27 27 27 26 26 26 26 26 26 26 26 26 26 26 26 27 27 28 28 29 29 29 29 30 31
33 33 31 30 28 27 26 25 25 25 25 26 26 26 27 27 27 27 28 28 29 28 28 28 28 28 27 27 27 27 27 27 27 27 28 28 28 29 29 30 30 31 31 32
32 32 31 29 28 27 26 25 25 25 26 26 27 27 27 28 28 28 29 29 29 29 30 30 30 29 29 28 28 28 27 27 28 28 29 29 29 30 30 31 31 31 32 33
29 29 28 27 27 25 25 24 24 25 25 26 26 27 28 28 28 29 29 29 29 29 30 30 30 30 30 29 29 28 28 28 29 29 30 30 30 31 31 31 32 32 33 34
22 24 24 24 24 23 22 22 23 23 24 24 25 26 26 27 28 28 28 29 29 29 30 30 30 30 30 30 29 29 29 29 29 30 30 31 31 32 32 32 32 33 33 34
18 20 21 21 21 21 21 21 22 22 22 23 24 24 25 26 27 28 28 28 28 29 30 30 30 30 30 30 30 30 31 31 31 31 31 31 32 32 32 32 32 33 34 35
17 18 19 19 20 20 20 21 21 21 22 22 23 23 24 25 26 27 27 28 29 29 30 30 30 30 30 30 31 31 31 31 32 32 32 32 32 32 32 32 33 34 34 36
16 17 17 18 19 19 19 20 20 21 21 21 21 22 23 24 25 26 27 27 28 28 28 29 29 30 30 30 30 31 31 32 33 32 32 32 31 32 32 33 33 34 35 37
16 17 17 18 18 18 18 19 19 20 20 20 20 21 21 22 23 24 25 26 26 26 26 27 28 28 29 30 30 30 31 32 32 32 31 31 32 32 33 33 34 35 36 37
17 17 18 18 18 18 18 18 18 19 19 20 20 20 21 21 22 23 24 24 25 25 26 26 26 27 28 28 28 29 30 30 30 31 31 32 32 33 33 34 35 36 37 38
18 18 19 19 19 19 19 19 19 18 19 19 19 20 21 21 22 22 22 23 24 24 25 25 26 26 26 27 28 28 29 29 29 30 31 31 32 33 33 34 35 36 37 38
20 20 20 20 20 20 20 20 20 20 20 20 21 21 22 22 22 22 22 22 22 23 23 24 25 26 27 28 28 28 28 29 29 30 31 31 32 33 34 35 36 37 38 39
23 23 22 22 22 22 22 23 23 23 24 24 24 24 24 23 23 23 23 23 23 23 23 23 23 24 24 25 26 27 28 29 30 30 31 32 33 33 34 35 36 37 38 39
Wind_Direction
232 231 230 231 232 233 233 231 230 233 238 236 235 236 236 237 238 240 242 245 249 254 259 265 270 273 276 278 279 281 283 285 287 289 290 293 297 302 306 309 311 314 315 314
232 234 234 235 235 234 233 233 233 235 238 237 233 233 235 238 239 241 243 247 251 257 263 268 274 278 281 283 282 282 282 285 288 290 292 295 298 302 307 311 315 318 319 318
233 235 236 235 236 234 231 230 231 232 233 233 231 231 234 236 238 240 242 246 251 258 264 272 278 283 286 287 287 286 285 287 288 291 293 296 299 302 308 312 316 319 322 323
237 237 238 235 234 233 231 230 230 230 231 232 230 231 233 234 235 236 239 245 251 258 268 276 283 287 289 290 291 289 289 290 291 293 295 298 301 305 309 314 317 319 323 326
239 239 238 233 234 234 233 231 231 231 232 232 231 232 232 232 233 235 240 246 253 262 272 279 286 290 292 292 294 294 294 293 295 297 298 300 303 307 311 315 319 321 325 330
241 241 240 234 236 236 235 234 234 235 234 234 232 232 231 231 233 237 243 249 256 265 273 281 288 292 294 295 296 296 296 297 299 301 302 304 307 311 314 317 320 323 326 330
244 244 244 241 242 242 241 241 239 238 237 235 234 232 231 232 236 241 247 252 259 267 275 282 288 292 295 297 297 297 297 299 301 303 304 307 311 313 315 318 321 324 326 328
248 249 248 247 247 248 249 247 244 241 238 237 236 234 234 236 241 245 249 254 261 268 275 282 287 291 295 297 297 297 298 299 300 302 305 308 311 315 317 319 321 322 323 325
249 250 249 249 250 250 249 247 245 242 241 240 239 237 238 240 244 248 251 256 261 267 273 281 286 290 293 296 297 296 297 298 299 301 304 308 312 314 316 318 319 319 319 320
248 249 249 250 250 250 250 249 247 245 244 243 242 242 242 244 247 250 252 257 262 267 272 278 283 288 292 293 294 295 295 296 297 299 302 306 309 311 313 314 314 315 314 315
248 248 248 248 249 249 250 249 247 246 246 245 244 244 245 246 247 250 253 257 262 266 270 275 280 285 290 291 291 292 293 295 296 297 299 302 306 308 309 310 311 311 312 312
247 246 246 247 249 250 250 249 248 246 246 247 246 246 247 248 248 250 253 257 260 264 268 272 277 281 286 289 290 290 291 293 295 296 297 299 303 305 307 307 308 309 310 311
246 245 245 244 246 248 248 249 248 248 248 249 249 248 248 249 250 251 253 256 259 263 267 271 275 278 282 285 288 288 289 291 293 295 296 297 300 302 304 306 307 308 309 310
242 243 243 243 243 244 246 247 248 250 250 251 251 250 250 250 251 252 254 256 258 262 266 270 273 276 279 281 284 285 286 288 291 293 295 296 298 300 302 304 305 306 308 310
239 239 239 240 241 242 245 247 249 251 251 251 251 251 251 251 252 253 254 256 258 260 264 268 271 274 277 279 280 283 284 286 288 291 293 295 297 299 302 303 304 305 307 309
236 235 235 236 239 242 245 248 251 252 253 252 252 252 253 253 253 254 255 256 258 259 263 267 270 273 275 276 278 280 282 284 286 290 292 295 297 299 302 303 304 305 307 309
232 231 230 232 236 240 244 248 252 254 256 256 255 255 255 255 255 256 257 258 259 261 263 265 268 271 272 274 276 278 280 282 285 288 292 295 297 299 301 303 304 305 307 309
223 223 225 230 234 239 244 249 253 256 258 260 259 259 258 257 257 257 258 259 260 261 263 264 266 268 270 273 274 275 278 281 284 287 290 293 296 297 299 301 303 305 306 308
210 214 221 228 233 239 246 251 256 259 262 262 262 261 261 260 259 259 260 260 261 262 263 264 265 267 270 271 272 274 276 279 283 286 290 293 295 296 298 300 302 304 306 308
211 216 223 229 236 242 248 253 258 262 265 266 266 265 265 264 262 261 261 262 262 263 263 265 266 267 269 270 270 273 275 278 281 285 289 292 294 295 296 299 301 303 305 308
219 222 227 233 239 245 251 256 261 266 268 268 269 269 268 267 266 264 263 264 264 265 265 265 266 267 268 269 270 272 274 277 281 285 288 291 293 293 295 298 300 302 305 307
226 228 233 239 244 249 255 260 265 268 270 271 272 273 273 271 269 267 266 266 266 267 267 267 267 268 268 269 271 273 274 276 280 283 287 290 291 293 295 298 300 302 305 307
237 238 241 245 250 254 258 263 267 269 271 273 275 277 277 276 274 272 270 269 269 269 269 270 270 270 270 270 272 274 275 277 279 282 285 288 290 293 295 298 300 302 305 307
243 244 246 249 253 256 260 265 268 270 271 275 277 279 281 280 279 277 274 271 270 271 271 270 270 270 271 273 274 275 277 279 280 282 285 287 289 292 295 297 300 302 305 307
244 247 250 252 254 257 261 264 267 271 275 278 280 282 283 284 282 280 277 276 274 273 273 272 271 272 273 274 275 277 279 281 283 284 286 287 290 293 295 297 299 302 305 307
248 251 252 253 255 258 262 265 268 273 277 281 283 286 287 286 284 281 279 277 276 276 275 275 275 275 275 276 277 279 280 281 283 285 287 289 291 293 295 297 299 302 304 307
251 253 254 256 258 260 263 266 270 274 278 280 283 285 285 284 283 281 279 277 277 277 278 279 280 280 280 280 281 281 282 284 286 287 288 290 291 293 295 297 299 302 305 308
Height
5633 5635 5637 5640 5642 5644 5647 5650 5653 5656 5657 5661 5665 5668 5671 5673 5676 5678 5681 5683 5685 5686 5687 5688 5688 5687 5687 5686 5685 5684 5682 5681 5680 5678 5675 5673 5670 5666 5661 5656 5650 5643 5636 5629
5630 5632 5634 5636 5638 5640 5643 5646 5649 5651 5654 5657 5660 5663 5666 5668 5671 5673 5676 5678 5679 5681 5681 5682 5681 5681 5680 5678 5677 5676 5675 5674 5672 5670 5668 5665 5662 5658 5654 5648 5643 5636 5630 5623
5627 5628 5630 5633 5635 5637 5640 5642 5644 5647 5651 5652 5656 5659 5661 5664 5666 5669 5671 5673 5674 5675 5676 5676 5675 5674 5673 5672 5671 5670 5668 5667 5665 5663 5661 5658 5655 5651 5647 5642 5637 5631 5625 5618
5624 5626 5628 5633 5632 5634 5636 5638 5640 5643 5646 5649 5652 5654 5657 5659 5662 5664 5666 5668 5669 5670 5670 5670 5669 5668 5667 5666 5665 5663 5662 5661 5659 5657 5654 5651 5648 5645 5641 5636 5631 5626 5620 5615
5622 5623 5625 5628 5629 5630 5633 5635 5637 5640 5642 5645 5647 5650 5653 5655 5657 5660 5661 5663 5664 5664 5664 5664 5664 5663 5662 5661 5659 5658 5656 5655 5653 5651 5648 5645 5642 5639 5635 5631 5626 5621 5616 5611
5619 5620 5623 5627 5627 5627 5631 5632 5634 5636 5638 5641 5643 5646 5649 5651 5653 5655 5656 5657 5658 5659 5659 5659 5658 5658 5657 5655 5654 5653 5651 5649 5647 5645 5643 5640 5637 5633 5630 5626 5621 5617 5613 5608
5615 5617 5620 5622 5623 5625 5628 5630 5631 5632 5634 5637 5639 5642 5644 5646 5648 5650 5651 5653 5653 5654 5654 5654 5653 5653 5652 5651 5649 5648 5646 5644 5642 5640 5638 5635 5632 5628 5625 5621 5617 5613 5609 5605
5612 5614 5619 5618 5619 5622 5624 5625 5626 5628 5630 5632 5634 5637 5639 5641 5643 5645 5646 5648 5649 5649 5649 5649 5648 5648 5647 5645 5644 5643 5641 5639 5637 5635 5633 5630 5627 5624 5620 5617 5613 5609 5605 5602
5608 5612 5612 5613 5615 5617 5618 5620 5622 5624 5626 5628 5630 5632 5634 5636 5638 5640 5641 5643 5643 5644 5644 5644 5643 5642 5641 5640 5639 5638 5636 5634 5632 5630 5628 5625 5622 5619 5616 5612 5609 5605 5602 5598
5602 5605 5606 5608 5610 5611 5613 5615 5617 5619 5621 5623 5625 5627 5629 5631 5633 5634 5636 5637 5638 5638 5639 5638 5638 5637 5636 5635 5634 5632 5631 5629 5627 5625 5623 5620 5617 5614 5611 5608 5605 5601 5598 5594
5596 5598 5600 5602 5604 5606 5608 5609 5611 5613 5615 5617 5619 5621 5623 5625 5627 5628 5630 5631 5632 5632 5633 5633 5632 5632 5631 5629 5628 5627 5625 5624 5622 5620 5617 5615 5612 5609 5606 5603 5600 5597 5593 5590
5589 5591 5594 5597 5598 5600 5602 5604 5606 5607 5609 5611 5613 5615 5617 5619 5620 5622 5623 5624 5625 5626 5626 5626 5626 5625 5625 5623 5622 5621 5619 5618 5616 5614 5612 5609 5607 5604 5601 5598 5594 5591 5587 5584
5581 5583 5586 5589 5592 5594 5596 5598 5599 5601 5603 5605 5606 5608 5610 5612 5613 5615 5616 5617 5618 5619 5619 5619 5619 5619 5618 5617 5616 5614 5613 5611 5610 5608 5606 5603 5601 5598 5595 5592 5588 5585 5581 5577
5572 5575 5579 5582 5585 5587 5589 5591 5593 5594 5596 5598 5599 5601 5603 5604 5606 5607 5609 5610 5611 5611 5612 5612 5612 5611 5611 5610 5609 5607 5606 5605 5603 5601 5599 5597 5594 5591 5588 5585 5582 5578 5575 5571
5562 5566 5571 5575 5578 5580 5583 5585 5586 5588 5589 5591 5592 5594 5595 5597 5598 5599 5601 5602 5603 5603 5604 5604 5604 5603 5603 5602 5601 5600 5599 5597 5596 5594 5592 5589 5587 5584 5581 5578 5575 5571 5568 5564
5552 5557 5562 5567 5570 5573 5576 5578 5580 5581 5582 5583 5585 5586 5587 5589 5590 5591 5592 5593 5594 5595 5595 5595 5595 5595 5595 5594 5593 5592 5591 5590 5588 5587 5584 5582 5580 5577 5574 5571 5567 5564 5560 5556
5542 5548 5554 5559 5563 5566 5569 5571 5572 5573 5575 5576 5577 5578 5579 5580 5581 5582 5583 5584 5585 5586 5586 5586 5586 5586 5586 5585 5585 5584 5583 5582 5581 5579 5577 5575 5572 5569 5566 5563 5560 5556 5552 5548
5534 5541 5547 5552 5556 5559 5562 5564 5565 5566 5567 5568 5569 5570 5570 5571 5572 5573 5574 5575 5576 5576 5577 5577 5577 5577 5577 5577 5576 5576 5575 5574 5572 5571 5569 5567 5564 5561 5558 5555 5552 5548 5544 5540
5530 5536 5542 5546 5550 5553 5555 5557 5558 5559 5560 5560 5561 5561 5562 5563 5563 5564 5565 5566 5566 5567 5567 5568 5568 5568 5568 5568 5567 5567 5566 5565 5564 5562 5561 5558 5556 5553 5550 5547 5543 5540 5536 5532
5530 5534 5538 5542 5545 5547 5549 5551 5552 5552 5553 5553 5553 5553 5554 5554 5555 5555 5556 5557 5557 5558 5558 5558 5559 5559 5559 5559 5558 5558 5557 5557 5555 5554 5552 5550 5547 5544 5541 5538 5535 5531 5527 5523
5529 5532 5535 5537 5540 5542 5544 5545 5545 5546 5546 5546 5546 5546 5546 5546 5546 5547 5547 5548 5548 5548 5549 5549 5549 5549 5549 5549 5549 5549 5549 5548 5547 5545 5543 5541 5538 5536 5533 5530 5526 5523 5519 5514
5526 5529 5531 5533 5535 5537 5538 5539 5539 5539 5539 5539 5539 5539 5539 5538 5538 5539 5539 5539 5539 5539 5539 5540 5540 5540 5540 5540 5540 5540 5539 5539 5537 5536 5534 5532 5529 5527 5524 5521 5518 5514 5510 5505
5523 5525 5527 5528 5530 5531 5532 5532 5533 5533 5533 5533 5532 5532 5532 5531 5531 5531 5531 5531 5531 5531 5531 5531 5531 5531 5531 5531 5531 5531 5530 5529 5528 5527 5525 5523 5521 5518 5515 5512 5509 5505 5501 5496
5519 5520 5522 5523 5524 5525 5526 5527 5527 5527 5527 5526 5526 5526 5525 5524 5524 5523 5523 5523 5523 5523 5523 5523 5523 5523 5523 5523 5522 5522 5521 5520 5519 5517 5516 5514 5511 5509 5506 5503 5500 5496 5492 5487
5514 5515 5516 5518 5518 5519 5520 5520 5521 5521 5521 5520 5520 5519 5518 5518 5517 5516 5516 5515 5515 5515 5515 5514 5514 5514 5514 5514 5513 5513 5512 5511 5510 5508 5507 5505 5502 5500 5497 5494 5490 5487 5482 5478
5509 5510 5511 5512 5512 5513 5514 5514 5514 5515 5514 5514 5513 5513 5512 5511 5510 5509 5509 5508 5508 5507 5507 5507 5506 5506 5506 5505 5505 5504 5503 5502 5501 5499 5498 5496 5493 5491 5488 5485 5481 5478 5473 5469
5502 5503 5504 5505 5506 5506 5507 5507 5508 5507 5507 5507 5506 5505 5504 5503 5503 5502 5501 5501 5500 5500 5500 5499 5499 5498 5498 5497 5496 5496 5495 5493 5492 5490 5488 5486 5484 5481 5479 5476 5472 5468 5464 5460